Dewpoint
55 55 55 55 55 55 55 55 55 55 55 55 56 56 56 55 55 55 55 56 56 56 56 56 56 56 56 55 55 55 56 54 53 53 49 43 50 50 64 61 63 63 63 55 45 53 50 54 52 49 45 49 51 52 53 54 66 64 58 56 54 55 56 60 60 62 62 61 63 65 65 64 63 65 67 69 65 65 64 63 64 64 63 64 65 66 67 68
55 55 55 55 55 55 55 55 55 55 55 55 55 55 55 55 56 56 56 55 55 55 55 56 56 56 56 55 55 56 55 54 52 52 49 51 57 58 61 64 65 67 62 55 41 43 45 45 45 43 47 50 56 53 54 58 64 61 58 56 54 57 58 63 64 61 61 62 64 65 65 65 63 66 67 63 62 62 61 62 63 63 64 65 65 66 67 67
55 55 55 54 54 54 55 55 55 56 55 55 55 55 55 55 55 56 55 55 55 55 55 55 56 56 56 55 56 57 55 53 52 51 46 63 60 62 62 67 69 65 54 50 43 40 44 43 42 44 47 51 55 53 56 61 62 64 58 54 56 60 62 65 64 63 65 65 64 65 66 65 65 67 68 62 61 61 60 61 62 62 63 64 65 66 66 66
55 55 55 55 55 55 55 55 56 55 55 55 55 55 55 55 56 55 55 55 55 55 55 55 56 56 56 56 56 55 54 52 44 45 48 66 66 65 64 65 66 66 52 42 37 38 46 46 43 45 47 49 52 55 55 61 60 62 59 57 58 63 61 64 67 66 66 66 65 64 66 65 67 68 66 62 60 60 61 62 62 62 63 64 65 65 66 66
55 55 55 55 55 55 55 55 55 55 55 55 55 55 55 55 55 55 55 55 55 55 55 55 56 56 56 57 57 55 51 36 36 45 49 71 68 63 66 64 64 66 48 38 37 37 37 40 45 44 46 48 53 54 53 61 60 62 58 61 61 62 61 65 65 66 66 66 65 65 64 64 68 67 65 63 58 58 60 62 63 63 63 64 64 65 66 66
55 55 55 55 55 55 55 55 55 55 55 55 55 55 55 55 55 55 55 55 55 55 55 55 56 56 56 57 55 55 45 31 39 41 74 74 70 63 67 66 64 62 46 35 34 35 36 38 36 38 46 48 49 52 50 59 61 57 59 59 61 61 63 65 65 66 66 65 64 64 66 66 65 64 65 67 63 63 64 63 64 64 64 64 65 65 66 66
55 54 55 55 55 55 55 55 55 55 55 55 55 55 55 55 54 54 54 55 55 55 55 56 56 56 56 57 54 52 36 27 43 39 68 74 69 64 66 65 69 55 42 33 32 33 35 36 36 36 44 49 49 49 49 57 61 58 56 59 61 63 63 64 64 66 66 66 64 67 67 65 63 62 66 65 67 68 66 64 64 64 64 65 65 65 65 66
54 55 55 55 55 55 55 55 55 55 55 55 55 55 55 55 54 55 55 55 55 55 55 56 56 55 56 54 51 44 45 36 36 40 70 71 66 60 65 64 56 46 38 33 30 31 35 34 36 40 42 47 47 48 49 57 59 57 58 60 59 60 64 64 65 66 66 66 68 67 64 64 64 64 65 63 66 68 63 63 64 64 64 65 65 65 65 65
55 55 55 55 55 55 55 55 55 55 55 55 55 55 54 55 54 55 55 55 55 55 55 56 56 55 56 54 43 32 21 37 48 66 71 66 61 63 57 58 45 41 38 32 29 29 35 34 35 40 42 45 48 48 48 56 56 57 58 62 58 58 63 65 66 65 65 67 66 64 63 65 66 66 64 67 68 66 63 63 63 63 64 64 64 65 65 65
55 55 55 55 55 55 55 55 55 55 55 55 55 55 55 54 54 55 55 55 55 56 56 56 56 57 55 53 41 21 28 38 60 65 62 60 62 58 48 51 43 34 31 29 28 30 35 37 36 39 42 44 47 44 46 54 54 58 57 58 57 57 64 65 64 65 66 66 66 63 63 65 66 65 61 66 68 66 62 62 63 63 63 63 64 64 65 64
55 55 55 55 55 55 55 55 55 55 55 55 55 55 55 55 54 55 55 55 56 56 57 57 56 55 52 52 21 11 30 52 55 58 59 59 55 50 45 46 43 31 27 26 26 29 32 40 41 40 44 44 38 35 38 47 37 55 57 57 59 59 64 64 66 66 65 65 67 65 63 64 65 65 63 66 68 66 60 60 61 62 62 62 63 64 64 64
55 55 55 55 55 55 55 55 55 55 55 55 54 54 54 54 54 55 55 56 57 58 58 57 56 55 53 49 37 16 36 51 52 53 55 51 47 44 41 42 37 29 23 21 25 26 29 35 34 40 40 40 37 33 29 32 27 56 57 58 60 62 62 64 64 64 64 64 66 64 62 61 62 61 65 66 68 68 59 59 60 61 61 61 62 63 63 63
55 55 55 55 55 55 55 55 55 55 55 54 54 54 54 54 54 55 55 56 57 59 59 57 56 55 52 31 35 41 44 40 37 51 51 48 44 40 36 35 33 25 21 16 19 24 28 33 36 35 37 38 35 32 29 29 29 57 57 59 59 60 60 62 64 65 63 65 65 63 55 58 61 64 66 66 68 65 62 58 59 60 60 61 61 61 62 63
55 55 55 55 55 55 55 55 55 55 54 54 54 54 54 54 55 55 56 56 58 59 58 57 55 54 48 34 34 45 45 43 43 41 48 49 43 42 39 34 28 23 25 22 24 33 31 33 34 32 36 35 35 33 27 27 47 53 56 57 56 57 57 63 63 64 63 64 65 65 54 57 61 64 67 67 67 62 59 57 58 59 59 60 60 60 61 61
55 55 55 55 55 55 55 55 55 54 54 54 54 54 54 54 55 56 57 58 59 57 58 57 55 52 46 44 43 44 58 58 44 41 45 45 41 39 38 36 27 25 23 22 27 34 33 35 37 36 34 39 37 32 25 26 26 53 52 50 54 55 55 61 64 65 61 64 63 62 54 56 61 63 66 67 67 63 59 57 58 58 59 59 60 60 60 60
55 55 55 55 55 55 55 55 55 55 54 54 53 53 54 54 56 57 57 58 58 58 57 53 52 52 42 35 33 51 46 50 46 46 44 45 40 36 38 35 30 27 25 22 23 23 29 37 33 35 36 37 32 25 26 25 25 31 49 46 52 53 55 58 61 64 64 64 64 60 54 58 60 64 66 67 66 63 60 58 58 59 60 59 59 60 60 59
55 55 55 55 55 55 55 55 55 54 54 53 53 53 54 55 57 57 58 59 59 57 56 50 50 53 31 31 41 41 38 38 38 39 42 45 40 33 34 30 27 24 23 22 30 27 30 32 37 39 31 28 27 26 25 25 26 26 30 49 51 52 56 55 59 62 63 63 61 62 59 58 61 64 65 66 66 63 59 60 59 59 59 59 59 59 59 59
55 55 55 55 55 55 55 55 55 54 54 53 53 53 52 55 56 57 57 58 57 55 54 54 51 45 38 40 33 34 39 39 36 33 39 43 39 28 28 25 27 23 23 25 30 27 33 32 30 26 26 26 24 25 24 22 22 25 33 47 52 55 56 54 55 59 61 62 61 60 60 59 63 64 64 65 66 63 60 61 60 58 59 59 59 59 58 59
55 55 55 55 55 55 55 55 54 54 53 53 53 55 55 56 56 53 48 53 48 40 32 43 42 30 24 28 35 36 37 41 37 31 31 36 33 27 27 30 26 24 26 25 28 26 31 31 28 27 24 25 24 23 23 24 24 23 28 37 51 53 54 53 55 59 60 61 60 59 58 60 62 62 63 65 66 63 62 65 65 61 59 59 59 59 58 58
55 55 55 55 55 55 55 55 54 53 52 50 49 54 52 42 41 47 50 49 44 36 30 32 36 32 32 32 31 33 36 37 35 31 33 36 27 24 26 31 30 29 30 27 30 31 28 28 25 24 24 25 25 24 23 24 21 21 21 26 51 52 52 53 54 59 61 61 60 59 59 60 61 62 63 64 65 64 63 63 63 63 58 59 59 58 57 57
55 55 55 55 55 55 54 54 54 53 51 50 49 43 34 36 32 29 33 45 45 43 37 34 37 34 31 33 34 36 36 35 34 35 33 43 27 24 25 31 29 28 29 31 29 32 27 27 25 25 24 24 24 24 23 22 21 20 21 19 18 42 36 50 53 59 60 59 58 59 59 59 60 62 62 64 64 63 62 63 63 62 58 59 58 58 57 57
55 55 55 55 54 54 54 54 53 52 51 49 49 34 36 40 36 34 33 29 30 42 42 39 40 38 39 38 37 39 40 36 32 31 32 35 27 25 29 29 29 26 30 30 29 28 27 24 24 25 25 25 25 23 19 19 20 19 17 18 16 15 27 55 56 59 60 58 56 58 58 59 60 62 62 63 63 63 63 63 64 64 58 58 58 57 57 56
55 55 55 55 54 54 53 53 52 50 49 48 42 44 41 39 40 38 32 30 29 33 39 41 39 40 40 42 42 41 36 33 29 30 31 33 30 29 28 28 29 29 30 28 27 28 28 25 25 25 25 24 23 23 21 17 15 14 14 16 14 25 51 51 58 59 59 57 57 58 59 58 61 62 63 65 65 64 66 64 65 67 60 58 58 57 56 54
55 55 55 54 54 53 53 52 51 50 49 45 44 41 41 40 38 38 32 28 26 27 29 33 37 38 37 30 33 35 31 31 30 29 45 31 29 30 28 28 28 28 27 27 26 24 25 25 26 26 24 23 22 22 22 18 16 14 13 12 12 32 50 55 56 60 58 57 56 58 57 56 60 60 61 63 63 64 65 65 64 66 67 68 68 64 58 54
55 55 55 54 53 53 52 52 46 47 46 46 44 44 43 43 44 38 31 29 29 28 31 28 36 35 35 33 30 27 29 28 32 32 41 31 29 28 28 29 28 27 27 26 25 25 24 25 26 26 25 22 22 20 19 16 14 10 9 10 9 36 50 56 56 55 56 54 57 55 48 50 58 58 61 62 62 62 64 63 62 64 65 67 66 65 66 58
55 55 55 54 54 52 51 45 46 46 44 40 40 41 41 39 40 38 32 29 26 28 21 23 24 23 16 13 28 27 20 20 27 30 36 32 36 28 30 27 28 25 26 25 23 24 24 25 24 24 24 23 20 19 19 15 13 12 11 9 10 37 53 56 55 53 50 50 54 54 46 45 55 58 59 61 61 61 63 63 63 63 64 65 65 65 65 61
55 54 54 54 53 51 36 35 45 46 38 37 39 40 41 41 44 34 30 28 18 22 19 20 19 17 15 15 23 21 15 16 21 37 34 42 31 35 26 27 28 33 28 28 26 21 24 24 22 23 24 22 21 19 19 14 12 11 12 10 9 37 51 55 54 52 49 53 55 54 49 47 48 54 59 60 60 61 61 62 63 63 64 63 64 64 65 65
55 54 53 52 52 51 45 47 45 38 36 37 43 42 42 44 41 36 31 19 17 21 13 11 11 20 17 15 21 16 17 18 16 18 33 38 32 29 28 27 25 26 30 26 22 24 23 22 20 20 21 20 20 20 21 14 13 13 15 10 10 37 50 53 53 51 47 50 49 53 50 45 46 50 59 60 59 59 60 61 63 63 63 63 64 64 64 65
54 53 53 52 52 50 51 48 46 38 41 44 44 42 42 43 34 32 26 16 15 17 18 16 17 18 17 14 13 15 15 21 14 15 31 32 31 29 27 28 28 28 30 27 25 26 27 22 21 20 19 18 19 19 19 15 14 15 15 19 16 17 44 51 51 50 47 46 45 50 50 43 44 52 58 59 58 59 59 61 63 63 63 62 63 65 64 65
54 53 53 52 49 50 49 50 47 44 45 45 44 42 44 39 34 31 21 12 17 11 16 15 12 10 15 12 13 16 14 15 18 33 31 30 29 27 30 31 28 29 27 27 27 26 26 35 40 21 18 19 19 19 18 16 16 18 15 13 15 26 38 49 48 45 44 42 43 48 50 45 40 50 56 56 57 58 59 61 63 63 63 63 64 64 65 65
53 52 52 51 46 47 46 35 35 43 46 45 42 42 39 37 35 26 16 14 20 15 14 14 13 15 12 12 10 11 15 16 20 30 29 29 25 27 27 26 27 26 26 26 24 24 22 23 24 28 26 21 19 18 18 17 16 15 16 20 23 31 38 43 42 44 41 39 42 46 49 47 41 43 56 58 58 59 59 60 61 62 63 63 63 63 64 64
51 51 51 49 50 51 38 30 33 39 43 44 45 39 33 27 24 19 20 26 16 12 11 10 13 14 14 14 11 11 10 11 22 29 27 28 26 26 26 25 28 23 23 24 23 21 18 19 21 22 41 21 20 17 17 19 15 15 23 25 20 27 34 30 34 40 39 39 40 43 48 45 44 44 50 54 58 59 60 60 61 62 63 63 62 61 62 63
50 50 50 51 52 49 49 42 44 45 45 45 40 37 32 26 14 23 24 20 14 14 9 16 11 13 14 10 9 12 13 10 13 21 23 17 22 17 22 20 25 24 23 31 21 18 18 20 21 21 22 30 19 16 19 17 17 16 16 22 22 28 28 24 31 33 36 38 35 39 47 44 46 49 54 55 56 58 59 60 62 63 63 63 63 62 61 62
50 50 49 51 51 49 49 53 49 46 46 47 34 30 24 18 19 46 27 22 11 14 16 17 15 11 12 7 13 11 8 11 13 16 22 25 18 19 18 16 18 17 23 28 16 17 18 18 21 23 18 24 21 18 19 17 18 16 19 20 22 30 27 24 27 24 32 35 33 45 43 42 42 45 54 55 56 58 59 60 62 63 63 63 63 63 63 62
50 49 49 50 52 51 50 49 47 48 44 38 36 31 22 20 26 22 21 15 12 16 19 18 18 16 15 15 16 16 11 13 19 19 18 18 18 20 20 16 17 19 22 14 22 28 19 19 22 24 23 25 23 22 21 22 21 22 24 25 23 25 34 29 32 26 29 35 41 43 43 48 48 53 55 57 57 59 60 60 62 62 63 63 64 64 64 63
48 47 47 46 50 46 50 49 47 45 37 33 35 27 23 24 21 19 13 15 14 20 18 18 19 17 17 16 19 18 18 18 19 18 21 19 20 20 18 20 16 18 17 22 29 22 29 22 25 24 25 23 23 27 26 20 17 22 21 20 22 25 30 35 39 38 33 39 40 46 47 49 52 52 55 57 58 59 60 61 62 62 63 63 63 63 64 64
47 49 39 40 42 49 48 47 47 41 39 34 31 28 30 30 22 22 40 15 20 21 21 16 18 19 19 17 18 19 19 17 18 22 22 24 21 19 16 18 21 17 19 20 20 22 20 21 22 25 23 24 25 25 25 25 24 23 19 20 28 32 32 29 24 31 28 27 37 46 46 46 44 44 54 55 56 57 59 60 61 62 62 62 63 63 63 64
49 49 52 51 43 41 47 47 41 38 37 35 32 42 37 26 29 22 19 17 19 22 24 24 21 22 21 19 19 20 21 17 18 24 24 23 20 22 18 16 18 16 17 21 21 24 23 21 22 25 25 24 24 24 21 26 27 22 20 26 18 24 20 29 28 24 25 36 41 45 46 46 46 46 53 54 56 57 59 61 61 62 62 63 63 64 64 64
50 43 35 38 43 41 46 44 39 38 36 32 34 28 43 31 28 23 20 20 23 23 21 26 23 23 22 21 22 20 21 19 21 22 24 21 19 21 16 18 16 14 19 25 23 28 30 21 22 24 24 23 22 22 21 22 23 26 25 22 30 27 29 26 25 28 27 35 42 45 47 44 48 50 55 55 57 58 59 60 61 62 63 63 64 65 65 66
39 35 34 39 42 43 46 38 34 31 31 26 29 36 30 22 24 20 18 18 16 20 25 28 27 22 24 23 22 21 22 23 23 23 20 20 19 20 14 18 22 13 19 26 25 27 26 29 21 23 24 23 21 23 21 23 22 22 21 23 23 29 29 24 30 25 36 40 42 44 43 45 48 57 56 57 58 59 60 60 61 61 62 63 63 64 64 65
46 36 36 39 36 41 34 32 30 30 30 32 32 29 23 21 23 17 18 18 18 23 20 24 26 22 24 23 21 23 22 23 23 22 22 23 18 17 17 16 17 12 18 18 17 24 28 28 25 26 22 22 21 24 25 24 22 21 21 22 22 21 21 20 22 28 41 42 40 42 41 45 53 57 57 58 59 59 60 60 61 61 61 61 61 62 63 63
38 34 33 39 35 32 31 28 26 32 26 30 24 27 26 40 16 16 18 17 22 19 25 25 29 27 27 24 23 25 24 25 24 22 20 16 18 16 15 17 16 15 18 17 17 18 29 33 32 23 24 21 22 23 28 28 25 22 19 15 23 25 25 24 20 22 41 43 45 42 41 43 55 57 58 59 59 58 58 59 59 60 61 61 62 63 63 64
37 35 38 43 44 26 24 23 42 38 24 27 34 18 16 17 17 17 15 16 18 22 23 20 20 22 23 26 25 23 25 24 26 23 24 26 20 18 18 16 15 13 20 16 21 24 43 29 27 28 32 34 32 31 30 29 30 24 22 21 16 14 20 21 24 28 41 43 41 40 41 47 55 59 58 59 59 59 59 59 59 60 61 61 61 62 63 63
39 40 43 46 38 27 23 22 24 27 25 22 17 15 17 15 15 14 14 14 23 18 23 21 20 24 24 25 24 22 28 23 27 27 27 31 20 21 26 16 16 15 14 15 19 20 26 29 29 29 29 29 29 30 27 29 29 29 25 24 19 18 22 28 38 41 41 42 42 39 40 47 55 58 58 59 58 58 58 59 59 59 60 60 61 61 62 63
45 44 45 46 45 23 21 23 23 25 36 26 18 16 14 14 16 18 15 15 19 20 22 22 22 21 24 28 27 28 28 24 27 28 27 31 27 26 17 17 19 29 32 37 46 38 26 31 35 32 27 26 26 24 26 28 27 29 27 17 19 16 32 33 31 38 34 40 42 41 45 51 56 57 57 58 58 58 57 57 57 58 59 58 60 60 59 60
42 33 38 35 35 21 26 28 21 21 28 30 18 17 15 16 12 15 16 16 20 21 23 27 26 25 26 24 25 25 23 26 26 27 30 28 30 24 18 21 23 38 53 45 51 37 32 38 39 37 37 30 31 34 37 41 31 22 18 18 20 19 36 36 38 36 34 40 42 44 49 50 52 55 56 57 57 56 57 57 56 57 58 58 58 58 58 59
45 34 34 37 39 21 20 17 20 23 22 28 21 16 19 18 16 19 21 17 19 24 27 29 31 25 28 28 30 29 31 27 34 32 33 29 31 30 30 28 27 44 50 39 45 38 36 28 31 41 40 40 31 35 31 37 27 24 18 18 20 24 28 36 29 29 42 42 38 47 51 50 51 54 56 56 56 56 56 56 57 57 56 57 58 58 58 57
36 39 38 42 25 23 21 21 18 28 34 27 24 24 20 20 20 23 21 23 24 31 28 30 25 30 36 31 33 31 35 35 35 32 36 34 34 30 26 29 27 37 37 23 36 27 26 25 26 34 32 37 26 26 23 18 19 22 19 21 22 36 35 36 39 43 43 38 38 47 50 50 52 54 55 56 56 55 55 56 57 58 57 55 55 55 56 56
43 44 44 47 36 37 20 27 28 32 34 33 32 26 24 18 19 20 22 23 25 26 31 28 27 24 24 32 33 31 32 30 29 35 32 31 32 32 29 31 29 32 30 28 27 38 25 24 30 27 27 27 29 26 22 21 21 21 22 24 28 42 43 44 45 47 46 42 47 50 49 51 53 54 55 55 55 54 54 55 56 55 57 56 54 54 55 56
38 42 44 48 48 46 46 32 33 27 23 36 22 26 22 21 14 14 18 25 28 29 32 29 30 29 26 24 29 24 26 35 33 24 30 33 28 33 30 30 26 29 32 29 30 27 19 23 36 28 33 25 29 29 22 23 23 24 27 25 26 41 47 47 48 49 50 49 50 50 50 50 53 54 54 54 54 54 54 54 54 54 53 54 53 53 54 54
47 47 47 46 44 46 48 40 32 32 24 24 25 31 38 27 19 17 18 21 23 27 32 29 31 32 31 28 28 29 27 28 34 24 25 27 22 29 27 31 28 27 34 29 29 29 27 25 32 32 26 27 27 28 25 28 23 26 26 24 23 24 44 47 47 48 48 47 49 49 49 49 51 54 53 53 52 52 51 51 51 52 52 52 51 52 52 53
49 49 52 47 41 50 42 43 34 26 18 24 31 31 32 28 26 25 21 26 26 28 30 32 32 26 29 25 26 29 26 23 20 19 18 15 22 28 31 30 27 27 28 28 35 30 32 28 24 27 27 27 28 30 32 27 23 25 26 23 26 30 41 48 49 50 49 49 48 47 48 50 52 53 51 51 51 50 50 50 50 50 50 49 50 50 50 51